Omak, WA

5:23 AM PDT on June 23, 2018 (GMT -0700)
Omak

Weather History for KOMK - October, 2017

Change the Weather History Date:

Friday, October 13, 2017

  Actual Average Record
Temperature  
Mean Temperature 44 °F 50 °F  
Max Temperature 54 °F 64 °F 76 °F (1945)
Min Temperature 34 °F 37 °F 20 °F (1969)
Degree Days  
Heating Degree Days 21 15  
Month to date heating degree days 212 155  
Since 1 July heating degree days 341 316  
Cooling Degree Days 0 0  
Month to date cooling degree days 0 0  
Year to date cooling degree days 885 664  
Moisture  
Dew Point 35 °F    
Average Humidity 73    
Maximum Humidity 100    
Minimum Humidity 45    
Precipitation  
Precipitation 0.00 in 0.03 in 1.08 in (2016)
Month to date precipitation T 0.36  
Year to date precipitation 10.49 10.22  
Sea Level Pressure  
Sea Level Pressure 30.12 in    
Wind  
Wind Speed 5 mph (NNW)    
Max Wind Speed 15 mph    
Max Gust Speed 19 mph    
Visibility 10 miles    
Events      
T = Trace of Precipitation, MM = Missing Value Source: NWS Daily Summary

Daily Weather History Graph

Daily Weather History Graph

Search for Another Location

Airport or City:

Astronomy

Oct. 13, 2017 Rise Set
Actual Time 7:15 AM PDT 6:12 PM PDT
Civil Twilight 6:43 AM PDT 6:43 PM PDT
Nautical Twilight 6:07 AM PDT 7:19 PM PDT
Astronomical Twilight 5:31 AM PDT 7:56 PM PDT
Moon 12:11 AM PDT (10/13) 3:30 PM PDT (10/13)
Length of Visible Light 11h 59m
Length of Day
10h 56m
Last Quarter, 36% of the Moon is Illuminated
Oct 13
Last Quarter
Oct 19
New
Oct 27
First Quarter
Nov 3
Full
Nov 10
Last Quarter

Hourly Weather History & Observations

Time (PDT) Temp. Windchill Dew Point Humidity Pressure Visibility Wind Dir Wind Speed Gust Speed Precip Events Conditions
12:53 AM 42.1 °F 39.2 °F 41.0 °F 96% 30.01 in 10.0 mi SSE 4.6 mph - N/A   Overcast
1:53 AM 39.0 °F 34.8 °F 37.9 °F 96% 30.01 in 10.0 mi South 5.8 mph - N/A   Mostly Cloudy
2:53 AM 36.0 °F - 36.0 °F 100% 30.01 in 10.0 mi Calm Calm - N/A   Scattered Clouds
3:02 AM 37.0 °F - 37.0 °F 100% 29.99 in 10.0 mi Calm Calm - N/A   Mostly Cloudy
3:53 AM 39.9 °F 37.8 °F 39.0 °F 97% 30.00 in 10.0 mi SSE 3.5 mph - N/A   Overcast
4:53 AM 39.9 °F 37.8 °F 39.0 °F 97% 30.01 in 10.0 mi WSW 3.5 mph - N/A   Overcast
5:53 AM 39.9 °F 37.8 °F 39.0 °F 97% 30.01 in 10.0 mi WNW 3.5 mph - N/A   Overcast
6:53 AM 39.9 °F - 39.0 °F 97% 30.02 in 10.0 mi Calm Calm - N/A   Overcast
7:53 AM 39.9 °F - 39.0 °F 97% 30.04 in 10.0 mi Calm Calm - N/A   Overcast
8:53 AM 42.1 °F - 39.9 °F 92% 30.06 in 10.0 mi Calm Calm - N/A   Overcast
9:53 AM 43.0 °F 41.3 °F 41.0 °F 93% 30.07 in 10.0 mi NW 3.5 mph - N/A   Overcast
10:53 AM 45.0 °F 43.5 °F 39.9 °F 82% 30.09 in 10.0 mi North 3.5 mph - N/A   Overcast
11:53 AM 46.9 °F - 39.0 °F 74% 30.10 in 10.0 mi NNW 6.9 mph - N/A   Overcast
12:53 PM 51.1 °F - 35.1 °F 54% 30.11 in 10.0 mi Calm Calm - N/A   Overcast
1:53 PM 52.0 °F - 34.0 °F 50% 30.11 in 10.0 mi NNW 6.9 mph - N/A   Mostly Cloudy
2:53 PM 54.0 °F - 32.0 °F 43% 30.12 in 10.0 mi North 6.9 mph - N/A   Partly Cloudy
3:53 PM 52.0 °F - 33.1 °F 49% 30.14 in 10.0 mi North 10.4 mph - N/A   Partly Cloudy
4:53 PM 51.1 °F - 34.0 °F 52% 30.16 in 10.0 mi North 5.8 mph - N/A   Clear
5:53 PM 48.0 °F - 30.9 °F 52% 30.20 in 10.0 mi North 12.7 mph - N/A   Clear
6:53 PM 44.1 °F 39.0 °F 30.9 °F 60% 30.24 in 10.0 mi North 9.2 mph - N/A   Partly Cloudy
7:53 PM 45.0 °F 40.1 °F 32.0 °F 60% 30.28 in 10.0 mi North 9.2 mph - N/A   Overcast
8:53 PM 37.9 °F 33.5 °F 30.0 °F 73% 30.30 in 10.0 mi North 5.8 mph - N/A   Clear
9:53 PM 37.0 °F 31.6 °F 26.1 °F 65% 30.33 in 10.0 mi NW 6.9 mph - N/A   Clear
10:53 PM 36.0 °F 29.6 °F 25.0 °F 64% 30.35 in 10.0 mi WNW 8.1 mph - N/A   Clear
11:53 PM 36.0 °F 28.5 °F 25.0 °F 64% 30.36 in 10.0 mi WNW 10.4 mph - N/A   Clear